[[{"header":{"parameterUnit":"m.s-1","parameterCategory":1,"la1":30.2991,"la2":30.254,"lo1":-89.0895,"lo2":-89.0444,"dy":0.0017,"dx":0.0017,"nx":28,"ny":28,"refTime":"2023-11-01T03:00:00:Z","depth":0,"parameterNumber":2,"parameterNumberName":"U-component_of_WINDS"},"data":[0,0,0,0,0,0,0,0,0,0,0,0,0,0,0,0,0,0,0,0,0,0,0,0,0,0,0,0,0,0,0,0,0,0,0,0,0,0,0,0,0,0,0,0,0,0,0,0,0,0,0,0,0,0,0,0,0,0,-2.6534,-2.6535,0,-2.6609,-2.661,-2.6611,-2.658,-2.6578,-2.6577,-2.6575,-2.6651,-2.6655,-2.6658,0,0,0,0,0,0,0,0,0,0,0,0,0,-2.6363,-2.6366,-2.6534,-2.6535,-2.6536,-2.6609,-2.661,-2.6611,-2.658,-2.6578,-2.6576,-2.6574,-2.665,-2.6654,-2.6659,0,0,0,0,0,0,0,0,0,0,0,0,0,-2.6438,-2.6367,-2.6534,-2.6529,-2.653,-2.6609,-2.661,-2.6611,-2.6581,-2.6578,-2.6576,-2.6573,-2.6649,-2.6654,-2.6659,-2.6747,0,0,-2.6676,-2.6679,0,0,0,0,0,0,0,0,-2.6433,-2.6444,-2.6529,-2.653,-2.653,-2.6583,-2.6578,-2.6657,-2.6582,-2.6562,-2.6575,-2.6572,-2.6631,-2.6637,-2.6657,-2.675,-2.6754,-2.6677,-2.668,-2.6683,-2.6684,0,0,0,0,0,0,0,-2.6428,-2.6441,-2.6564,-2.653,-2.6531,-2.6523,-2.6531,-2.6593,-2.661,-2.6563,-2.6561,-2.657,-2.663,-2.6652,-2.6659,-2.6755,-2.6677,-2.6682,-2.6685,-2.6687,-2.6923,-2.6926,0,0,0,0,0,0,-2.6423,-2.6436,-2.6561,-2.6566,-2.6474,-2.6529,-2.6537,-2.6569,-2.6609,-2.6613,-2.6573,-2.6569,-2.6644,-2.6652,-2.6661,-2.6767,-2.6682,-2.6688,-2.6691,-2.692,-2.6924,-2.6927,0,0,0,0,0,0,-2.642,-2.6435,-2.6558,-2.6501,-2.6516,-2.6534,-2.657,-2.6571,-2.6593,-2.6616,-2.6619,-2.6592,-2.6642,-2.6654,-2.6726,-2.6769,-2.669,-2.6695,-2.6917,-2.6922,-2.6926,-2.6979,0,0,0,0,0,0,-2.6415,-2.6434,-2.6467,-2.6502,-2.6519,-2.6622,-2.6573,-2.6575,-2.6603,-2.6598,-2.6635,-2.6639,-2.6641,-2.6718,-2.6731,-2.6775,-2.67,-2.6913,-2.6919,-2.6924,-2.6973,-2.6984,-2.6994,0,0,0,0,0,-2.6409,-2.6479,-2.6469,-2.6484,-2.6562,-2.6625,-2.6635,-2.6636,-2.6606,-2.664,-2.6655,-2.6637,-2.6762,-2.6725,-2.6741,-2.6787,-2.6911,-2.6917,-2.6924,-2.6968,-2.6982,-2.6994,0,0,0,0,0,0,-2.6449,-2.6484,-2.6473,-2.6557,-2.6588,-2.6619,-2.6663,-2.665,-2.6691,-2.6685,-2.6684,-2.6693,-2.6768,-2.6784,-2.6743,-2.6873,-2.6832,-2.6842,-2.686,-2.6874,-2.6884,-2.6879,-2.6704,0,0,0,0,0,-2.6468,-2.6517,-2.6544,-2.6615,-2.6631,-2.6644,-2.6671,-2.667,-2.6702,-2.6715,-2.6735,-2.6767,-2.6814,-2.6844,-2.6888,-2.6975,-2.6982,-2.7014,-2.7024,-2.7032,-2.7042,-2.7089,-2.7103,-2.6949,-2.6949,-2.6949,0,0,-2.6507,-2.6532,-2.6562,-2.6623,-2.6648,-2.6698,-2.6655,-2.671,-2.6747,-2.6723,-2.6793,-2.6809,-2.6845,-2.6925,-2.6961,-2.6941,-2.7085,-2.7041,-2.7048,-2.7052,-2.7097,-2.7112,-2.7125,-2.6954,-2.6953,-2.6952,0,0,-2.6604,-2.6627,-2.669,-2.6714,-2.6752,-2.676,-2.6774,-2.6808,-2.6817,-2.6887,-2.6871,-2.6914,-2.6994,-2.702,-2.7044,-2.715,-2.7135,-2.7164,-2.7219,-2.7265,-2.7277,-2.7287,-2.7326,-2.734,-2.7172,-2.7172,-2.7173,0,-2.6648,-2.6724,-2.6723,-2.6779,-2.6807,-2.6787,-2.685,-2.6874,-2.6923,-2.6942,-2.6919,-2.7018,-2.704,-2.7126,-2.7152,-2.7172,-2.7189,-2.716,-2.7275,-2.7286,-2.7296,-2.7333,-2.7347,-2.7176,-2.7175,-2.7175,-2.7175,0,-2.6776,-2.6828,-2.6874,-2.6922,-2.6955,-2.7014,-2.7022,-2.7054,-2.7049,-2.706,-2.7131,-2.7157,-2.7206,-2.7226,-2.7221,-2.7311,-2.7297,-2.7274,-2.7233,-2.7314,-2.7348,-2.7362,-2.7181,-2.7179,-2.7178,-2.7178,0,0,-2.6902,-2.6949,-2.6966,-2.6988,-2.7027,-2.7067,-2.7125,-2.7173,-2.7201,-2.7235,-2.7284,-2.7351,-2.733,-2.7357,-2.7355,-2.7395,-2.7478,-2.7367,-2.7368,-2.7388,-2.7579,-2.7597,-2.7614,-2.7468,-2.7471,-2.7473,-2.7577,0,-2.7003,-2.7106,-2.7106,-2.7201,-2.7249,-2.723,-2.7281,-2.731,-2.7321,-2.7363,-2.7374,-2.7423,-2.7391,-2.7407,-2.7446,-2.746,-2.7517,-2.7452,-2.7514,-2.7516,-2.7507,-2.7631,-2.7651,-2.7748,-2.759,-2.7592,-2.7594,0,-2.7135,-2.7174,-2.7273,-2.7305,-2.7325,-2.7371,-2.7415,-2.7455,-2.7488,-2.7492,-2.7522,-2.7514,-2.7573,-2.7528,-2.7608,-2.7565,-2.7589,-2.76,-2.7604,-2.7611,-2.7561,-2.7643,-2.7778,-2.7793,-2.7615,-2.7613,-2.7612,0,-2.7219,-2.7296,-2.7365,-2.7384,-2.7423,-2.7455,-2.7473,-2.7502,-2.7531,-2.7569,-2.7587,-2.7631,-2.7656,-2.769,-2.7693,-2.766,-2.7775,-2.773,-2.7781,-2.7781,-2.7807,-2.7806,-2.795,-2.7821,-2.7821,-2.782,-2.782,0,-2.7332,-2.7394,-2.7403,-2.7446,-2.7514,-2.7514,-2.7581,-2.7596,-2.7622,-2.7667,-2.7653,-2.7695,-2.7697,-2.774,-2.7743,-2.781,-2.782,-2.7826,-2.7827,-2.7829,-2.7828,-2.7846,-2.784,-2.7824,-2.7823,-2.7823,-2.7822,0,-2.7438,-2.7447,-2.7521,-2.7551,-2.756,-2.7609,-2.7635,-2.7675,-2.7684,-2.7741,-2.7755,-2.7769,-2.7819,-2.7825,-2.7884,-2.7886,-2.7966,-2.7959,-2.7956,-2.7955,-2.8006,-2.8001,-2.8167,-2.8189,-2.8045,-2.8046,-2.8048,0,-2.7511,-2.7558,-2.7593,-2.7622,-2.7642,-2.7689,-2.7718,-2.7719,-2.7749,-2.7789,-2.7825,-2.7874,-2.7913,-2.7994,-2.8009,-2.8053,-2.8048,-2.8103,-2.8054,-2.8055,-2.805,-2.8047,-2.8052,-2.8113,-2.8114,-2.8116,-2.8117,0,-2.7639,-2.7641,-2.7684,-2.7728,-2.7763,-2.7798,-2.7831,-2.7855,-2.786,-2.7895,-2.7946,-2.7977,-2.8036,-2.8085,-2.8129,-2.8146,-2.8133,-2.8131,-2.8146,-2.8149,-2.8145,-2.8149,-2.7983,-2.8128,-2.8127,-2.8126,-2.8125,-2.8125,-2.7732,-2.7772,-2.7804,-2.7852,-2.7876,-2.7907,-2.7947,-2.796,-2.8003,-2.8052,-2.8049,-2.8106,-2.8136,-2.8194,-2.8214,-2.8258,-2.824,-2.826,-2.8265,-2.8271,-2.8276,-2.8137,-2.8265,-2.8265,-2.8265,-2.8265,-2.8264,0,-2.786,-2.7879,-2.7923,-2.7969,-2.8007,-2.799,-2.8025,-2.8058,-2.8108,-2.8137,-2.8176,-2.8235,-2.8281,-2.83,-2.8345,-2.8377,-2.8372,-2.8389,-2.8387,-2.8392,-2.8289,-2.8273,-2.8392,-2.8392,-2.8392,-2.8392,-2.8392,-2.8392,-2.7932,-2.8,-2.8006,-2.8086,-2.8104,-2.816,-2.8181,-2.8209,-2.8233,-2.8299,-2.8338,-2.8349,-2.8374,-2.8422,-2.8464,-2.8468,-2.8486,-2.8506,-2.8507,-2.8412,-2.8399,-2.8387,-2.8371,-2.8509,-2.851,-2.8606,-2.8607,-2.8608]},{"header":{"parameterUnit":"m.s-1","parameterCategory":1,"la1":30.2991,"la2":30.254,"lo1":-89.0895,"lo2":-89.0444,"dy":0.0017,"dx":0.0017,"nx":28,"ny":28,"refTime":"2023-11-01T03:00:00:Z","depth":0,"parameterNumber":3,"parameterNumberName":"V-component_of_WINDS"},"data":[0,0,0,0,0,0,0,0,0,0,0,0,0,0,0,0,0,0,0,0,0,0,0,0,0,0,0,0,0,0,0,0,0,0,0,0,0,0,0,0,0,0,0,0,0,0,0,0,0,0,0,0,0,0,0,0,0,0,-8.7261,-8.7262,0,-8.7364,-8.7366,-8.7367,-8.7289,-8.7286,-8.7282,-8.7279,-8.7378,-8.7383,-8.7389,0,0,0,0,0,0,0,0,0,0,0,0,0,-8.699,-8.6996,-8.7261,-8.7263,-8.7264,-8.7364,-8.7366,-8.7367,-8.729,-8.7286,-8.7282,-8.7278,-8.7376,-8.7383,-8.739,0,0,0,0,0,0,0,0,0,0,0,0,0,-8.7102,-8.6998,-8.7261,-8.7238,-8.7237,-8.7364,-8.7366,-8.7367,-8.7291,-8.7286,-8.7281,-8.7276,-8.7374,-8.7382,-8.7391,-8.7544,0,0,-8.7417,-8.7421,0,0,0,0,0,0,0,0,-8.7096,-8.7112,-8.724,-8.7239,-8.7238,-8.7309,-8.7306,-8.7427,-8.7292,-8.727,-8.7279,-8.7273,-8.7359,-8.7368,-8.7398,-8.7549,-8.7553,-8.7418,-8.7423,-8.7427,-8.7429,0,0,0,0,0,0,0,-8.7088,-8.7107,-8.7302,-8.7242,-8.7241,-8.722,-8.723,-8.7329,-8.7341,-8.7271,-8.7266,-8.728,-8.7357,-8.739,-8.74,-8.7555,-8.7417,-8.7425,-8.743,-8.7434,-8.7837,-8.7842,0,0,0,0,0,0,-8.7084,-8.7101,-8.7298,-8.7305,-8.7154,-8.7229,-8.724,-8.7291,-8.734,-8.7342,-8.7284,-8.7276,-8.7378,-8.739,-8.7403,-8.7587,-8.7427,-8.7435,-8.744,-8.7831,-8.7838,-8.7844,0,0,0,0,0,0,-8.7078,-8.7102,-8.7294,-8.7202,-8.7225,-8.7239,-8.7297,-8.7296,-8.7329,-8.7349,-8.735,-8.7316,-8.7374,-8.7391,-8.751,-8.7589,-8.7438,-8.7446,-8.7825,-8.7833,-8.7841,-8.7956,0,0,0,0,0,0,-8.7071,-8.7101,-8.7161,-8.7204,-8.723,-8.7402,-8.7302,-8.7302,-8.7345,-8.7335,-8.7379,-8.7382,-8.7372,-8.7498,-8.7519,-8.7598,-8.7453,-8.7818,-8.7829,-8.7838,-8.7945,-8.7967,-8.7986,0,0,0,0,0,-8.7061,-8.7187,-8.7164,-8.7189,-8.7306,-8.7407,-8.7422,-8.741,-8.7352,-8.7411,-8.7424,-8.738,-8.7577,-8.7511,-8.7534,-8.7617,-8.7813,-8.7826,-8.7838,-8.7936,-8.7962,-8.7985,0,0,0,0,0,0,-8.715,-8.7192,-8.7167,-8.7312,-8.7357,-8.7394,-8.7469,-8.7438,-8.7499,-8.7487,-8.7467,-8.7477,-8.7603,-8.7621,-8.7547,-8.7768,-8.7685,-8.7703,-8.7752,-8.7778,-8.7798,-8.779,-8.746,0,0,0,0,0,-8.7187,-8.7268,-8.73,-8.7423,-8.7448,-8.7455,-8.7498,-8.7485,-8.753,-8.7548,-8.757,-8.7613,-8.7684,-8.7732,-8.7799,-8.7947,-8.7955,-8.8015,-8.8036,-8.8052,-8.8068,-8.8147,-8.8174,-8.7885,-8.7885,-8.7885,0,0,-8.7263,-8.7296,-8.7348,-8.7442,-8.7476,-8.7558,-8.7471,-8.7562,-8.7622,-8.7561,-8.7676,-8.7694,-8.774,-8.7875,-8.7935,-8.7894,-8.8149,-8.8068,-8.8081,-8.8088,-8.8163,-8.819,-8.8215,-8.7893,-8.7892,-8.7891,0,0,-8.7444,-8.7478,-8.7585,-8.7621,-8.7674,-8.7678,-8.7704,-8.7746,-8.7756,-8.7872,-8.7828,-8.7898,-8.8022,-8.8057,-8.8091,-8.8287,-8.8249,-8.8309,-8.8415,-8.8493,-8.8516,-8.8536,-8.8606,-8.8631,-8.8324,-8.8324,-8.8324,0,-8.7531,-8.7656,-8.7643,-8.7739,-8.7781,-8.7732,-8.7839,-8.7874,-8.7945,-8.7974,-8.7927,-8.8082,-8.811,-8.8253,-8.8301,-8.833,-8.8358,-8.8304,-8.8514,-8.8534,-8.8553,-8.8619,-8.8645,-8.8331,-8.833,-8.833,-8.8329,0,-8.7761,-8.7848,-8.7928,-8.8001,-8.8052,-8.8153,-8.8153,-8.8206,-8.8189,-8.8197,-8.8315,-8.8347,-8.842,-8.8452,-8.8435,-8.8593,-8.8565,-8.8517,-8.8433,-8.8588,-8.8649,-8.8675,-8.8341,-8.8339,-8.8337,-8.8335,0,0,-8.8001,-8.8067,-8.8096,-8.8129,-8.8184,-8.825,-8.8347,-8.8421,-8.8467,-8.8517,-8.8598,-8.8704,-8.866,-8.8699,-8.8685,-8.8753,-8.8906,-8.8696,-8.8697,-8.8734,-8.9082,-8.9118,-8.9148,-8.8881,-8.8886,-8.889,-8.9078,0,-8.8185,-8.8358,-8.835,-8.8511,-8.8591,-8.8546,-8.8631,-8.8673,-8.8683,-8.875,-8.876,-8.8836,-8.8772,-8.8796,-8.8861,-8.8874,-8.8976,-8.886,-8.8955,-8.8958,-8.8945,-8.918,-8.9219,-8.9395,-8.9102,-8.9106,-8.9109,0,-8.8423,-8.8485,-8.8655,-8.8699,-8.8732,-8.8809,-8.8876,-8.8942,-8.8988,-8.899,-8.9035,-8.901,-8.9106,-8.9021,-8.9153,-8.9075,-8.9112,-8.9124,-8.9131,-8.9139,-8.9043,-8.9195,-8.9451,-8.9477,-8.9147,-8.9144,-8.9141,0,-8.8581,-8.8707,-8.8825,-8.8854,-8.8908,-8.8964,-8.8988,-8.9029,-8.9074,-8.9132,-8.9161,-8.9228,-8.9265,-8.9316,-8.9309,-8.9247,-8.9444,-8.9357,-8.9448,-8.9448,-8.9491,-8.9488,-8.9757,-8.9515,-8.9515,-8.9515,-8.9514,0,-8.8788,-8.8894,-8.8897,-8.897,-8.9087,-8.9075,-8.9191,-8.9209,-8.9246,-8.932,-8.9283,-8.9353,-8.934,-8.9409,-8.9403,-8.9514,-8.953,-8.9534,-8.9531,-8.9538,-8.9537,-8.9562,-8.955,-8.9522,-8.952,-8.9519,-8.9517,0,-8.8984,-8.8991,-8.9118,-8.9159,-8.9172,-8.9257,-8.9291,-8.9359,-8.9366,-8.946,-8.9481,-8.9493,-8.9572,-8.957,-8.966,-8.9656,-8.9792,-8.9775,-8.9778,-8.9774,-8.9865,-8.9856,-9.0158,-9.0197,-8.9931,-8.9933,-8.9935,0,-8.9116,-8.9197,-8.9249,-8.9297,-8.9326,-8.9404,-8.9451,-8.9441,-8.9491,-8.955,-8.961,-8.9687,-8.9748,-8.9876,-8.9891,-8.9959,-8.9943,-9.0045,-8.9953,-8.9957,-8.9945,-8.9941,-8.9948,-9.0062,-9.0065,-9.0068,-9.007,0,-8.935,-8.9349,-8.9419,-8.9491,-8.9549,-8.9604,-8.9655,-8.9696,-8.9691,-8.9749,-8.9831,-8.9879,-8.9971,-9.0047,-9.0113,-9.0135,-9.0102,-9.0099,-9.0123,-9.013,-9.0129,-9.0131,-8.9827,-9.0092,-9.0089,-9.0088,-9.0087,-9.0086,-8.9518,-8.9588,-8.9636,-8.9715,-8.9753,-8.9802,-8.9868,-8.9885,-8.9954,-9.0031,-9.002,-9.0112,-9.0155,-9.024,-9.0269,-9.0339,-9.0303,-9.0338,-9.0347,-9.0356,-9.0367,-9.0118,-9.035,-9.035,-9.0349,-9.0349,-9.0348,0,-8.975,-8.9779,-8.9852,-8.9926,-8.9988,-8.9954,-9.0008,-9.0061,-9.0144,-9.0188,-9.0249,-9.0344,-9.0417,-9.0438,-9.0509,-9.0561,-9.0547,-9.058,-9.0576,-9.0581,-9.0394,-9.0367,-9.059,-9.059,-9.0589,-9.0589,-9.0589,-9.0589,-8.9878,-8.9995,-9.0,-9.0136,-9.0162,-9.0255,-9.0289,-9.0333,-9.0368,-9.0476,-9.0538,-9.0552,-9.0587,-9.066,-9.0725,-9.0729,-9.0757,-9.0796,-9.0794,-9.0619,-9.0594,-9.0571,-9.0545,-9.0802,-9.0802,-9.0974,-9.0976,-9.0977]}]]